Saint Johnsbury, VT

9:16 AM EST on February 14, 2016 (GMT -0500)
St. Johnsbury

Weather History for K1V4 - April, 2013

Change the Weather History Date:

Monday, April 29, 2013

  Actual Average Record
Temperature  
Mean Temperature 55 °F 50 °F  
Max Temperature 70 °F 63 °F 90 °F (1990)
Min Temperature 39 °F 38 °F 20 °F (1909)
Degree Days  
Heating Degree Days 10 15  
Month to date heating degree days 682 604  
Since 1 July heating degree days 7214 7404  
Cooling Degree Days 0 0  
Month to date cooling degree days 0 0  
Year to date cooling degree days 0 0  
Growing Degree Days 4 (Base 50)    
Moisture  
Dew Point 35 °F    
Average Humidity 56    
Maximum Humidity 85    
Minimum Humidity 26    
Precipitation  
Precipitation 0.00 in 0.11 in 1.23 in (1988)
Month to date precipitation 2.44 2.76  
Year to date precipitation 7.74 9.95  
Sea Level Pressure  
Sea Level Pressure 30.16 in    
Wind  
Wind Speed - (North)    
Max Wind Speed -    
Max Gust Speed -    
T = Trace of Precipitation, MM = Missing Value Source: NWS Daily Summary

Daily Weather History Graph

Daily Weather History Graph

Search for Another Location

Airport or City:

Trip Planner

Search our weather history database for the weather conditions in past years. The results will help you decide how hot, cold, wet, or windy it might be!

Date:

Astronomy

Apr. 29, 2013 Rise Set
Actual Time 5:41 AM EDT 7:50 PM EDT
Civil Twilight 5:09 AM EDT 8:22 PM EDT
Nautical Twilight 4:30 AM EDT 9:01 PM EDT
Astronomical Twilight 3:47 AM EDT 9:44 PM EDT
Moon No Moon Rise 8:54 AM EDT (4/29)
Length of Visible Light 15h 12m
Length of Day
14h 08m
Waning Gibbous, 80% of the Moon is Illuminated
Apr 29
Waning Gibbous
May 2
Last Quarter
May 9
New
May 18
First Quarter
May 25
Full

Hourly Weather History & Observations

Time (EDT) Temp. Dew Point Humidity Pressure Visibility Wind Dir Wind Speed Gust Speed Precip Events Conditions
12:54 AM 48.0 °F 35.1 °F 61% 30.19 in - North - - N/A   Unknown
1:54 AM 46.0 °F 35.1 °F 66% 30.19 in - North - - N/A   Unknown
2:54 AM 43.0 °F 35.1 °F 74% 30.18 in - North - - N/A   Unknown
3:54 AM 42.1 °F 35.1 °F 76% 30.18 in - North - - N/A   Unknown
4:54 AM 39.9 °F 34.0 °F 79% 30.19 in - North - - N/A   Unknown
5:54 AM 39.0 °F 34.0 °F 82% 30.20 in - North - - N/A   Unknown
6:54 AM 39.9 °F 35.1 °F 83% 30.21 in - North - - N/A   Unknown
7:54 AM 45.0 °F 36.0 °F 71% 30.22 in - North - - N/A   Unknown
8:54 AM 51.1 °F 34.0 °F 52% 30.21 in - North - - N/A   Unknown
9:54 AM 55.0 °F 33.1 °F 43% 30.20 in - North - - N/A   Unknown
10:54 AM 57.0 °F 33.1 °F 40% 30.19 in - North - - N/A   Unknown
11:54 AM 63.0 °F 34.0 °F 34% 30.17 in - North - - N/A   Unknown
12:54 PM 68.0 °F 32.0 °F 26% 30.14 in - North - - N/A   Unknown
1:54 PM 69.1 °F 34.0 °F 27% 30.12 in - North - - N/A   Unknown
2:54 PM 69.1 °F 35.1 °F 29% 30.11 in - North - - N/A   Unknown
3:54 PM 66.9 °F 34.0 °F 30% 30.10 in - North - - N/A   Unknown
4:54 PM 66.9 °F 34.0 °F 30% 30.11 in - North - - N/A   Unknown
5:54 PM 66.0 °F 35.1 °F 32% 30.12 in - North - - N/A   Unknown
6:54 PM 64.9 °F 35.1 °F 33% 30.12 in - North - - N/A   Unknown
7:54 PM 64.0 °F 34.0 °F 33% 30.14 in - North - - N/A   Unknown
8:54 PM 62.1 °F 35.1 °F 37% 30.15 in - North - - N/A   Unknown
9:54 PM 60.1 °F 37.0 °F 42% 30.16 in - North - - N/A   Unknown
10:54 PM 59.0 °F 36.0 °F 42% 30.17 in - North - - N/A   Unknown
11:54 PM 57.9 °F 36.0 °F 44% 30.18 in - North - - N/A   Unknown